[[{"header":{"parameterUnit":"m.s-1","parameterCategory":1,"la1":30.2991,"la2":30.254,"lo1":-89.0895,"lo2":-89.0444,"dy":0.0017,"dx":0.0017,"nx":28,"ny":28,"refTime":"2024-06-24T03:00:00:Z","depth":0,"parameterNumber":2,"parameterNumberName":"U-component_of_WINDS"},"data":[0,0,0,0,0,0,0,0,0,0,0,0,0,0,0,0,0,0,0,0,0,0,0,0,0,0,0,0,0,0,0,0,0,0,0,0,0,0,0,0,0,0,0,0,0,0,0,0,0,0,0,0,0,0,0,0,0,0,2.1061,2.1062,0,2.1223,2.1225,2.1227,2.1179,2.1175,2.1172,2.1169,2.1346,2.1354,2.1362,0,0,0,0,0,0,0,0,0,0,0,0,0,2.0718,2.0724,2.106,2.1062,2.1064,2.1223,2.1225,2.1228,2.1179,2.1175,2.1171,2.1167,2.1344,2.1353,2.1363,0,0,0,0,0,0,0,0,0,0,0,0,0,2.0873,2.0726,2.106,2.1059,2.1061,2.1223,2.1225,2.1228,2.118,2.1175,2.117,2.1165,2.1341,2.1352,2.1364,2.154,0,0,2.14,2.1405,0,0,0,0,0,0,0,0,2.0864,2.0885,2.1057,2.106,2.1061,2.1175,2.117,2.1333,2.1181,2.1135,2.1169,2.1163,2.1294,2.131,2.1352,2.1548,2.1556,2.1401,2.1409,2.1414,2.1417,0,0,0,0,0,0,0,2.0853,2.0878,2.1125,2.106,2.1063,2.1054,2.107,2.12,2.1242,2.1139,2.1136,2.1155,2.1295,2.1341,2.1356,2.1559,2.1401,2.1412,2.1419,2.1424,2.191,2.1915,0,0,0,0,0,0,2.0839,2.0869,2.112,2.113,2.0948,2.1064,2.1083,2.1144,2.124,2.125,2.1159,2.1152,2.1323,2.1342,2.1362,2.1576,2.1414,2.1425,2.1432,2.1904,2.1911,2.1917,0,0,0,0,0,0,2.0832,2.0862,2.1113,2.0999,2.103,2.1076,2.1145,2.115,2.1196,2.1255,2.1264,2.1198,2.132,2.1345,2.1496,2.1581,2.143,2.1441,2.1897,2.1906,2.1914,2.2005,0,0,0,0,0,0,2.0823,2.086,2.0925,2.1,2.1036,2.1242,2.115,2.1157,2.1215,2.1207,2.1294,2.1304,2.1317,2.1478,2.1508,2.1595,2.145,2.189,2.1901,2.1912,2.1994,2.2015,2.2033,0,0,0,0,0,2.081,2.0946,2.0928,2.0959,2.1118,2.1247,2.1268,2.1278,2.1222,2.129,2.1328,2.1301,2.1566,2.1494,2.1527,2.1619,2.1885,2.1898,2.1911,2.1986,2.2011,2.2033,0,0,0,0,0,0,2.0883,2.0956,2.0937,2.11,2.1167,2.1238,2.1324,2.1304,2.1392,2.1381,2.1393,2.1413,2.1568,2.1608,2.1526,2.1795,2.1718,2.1738,2.1764,2.1789,2.1808,2.1796,2.146,0,0,0,0,0,2.0917,2.1012,2.1072,2.121,2.1244,2.1278,2.1335,2.1336,2.1408,2.1437,2.1487,2.156,2.166,2.1726,2.1821,2.1999,2.2019,2.2079,2.2098,2.2114,2.2132,2.2232,2.226,2.196,2.196,2.196,0,0,2.0991,2.1042,2.1102,2.1226,2.1278,2.138,2.1303,2.1414,2.149,2.1455,2.16,2.1639,2.1722,2.1887,2.1962,2.1926,2.2219,2.213,2.2143,2.2153,2.2248,2.2276,2.2301,2.1969,2.1968,2.1966,0,0,2.1176,2.1223,2.1344,2.1397,2.1476,2.1497,2.1526,2.16,2.1624,2.1768,2.1744,2.1837,2.2009,2.2069,2.2123,2.2331,2.231,2.2361,2.2465,2.2562,2.2585,2.2606,2.2683,2.271,2.2379,2.2379,2.2379,0,2.1259,2.1408,2.141,2.1523,2.158,2.1548,2.1673,2.1726,2.1833,2.1875,2.183,2.2045,2.2099,2.2279,2.2329,2.2372,2.2409,2.2353,2.2581,2.2602,2.2622,2.2696,2.2724,2.2385,2.2384,2.2384,2.2383,0,2.1507,2.161,2.1699,2.18,2.1866,2.1985,2.2009,2.2076,2.2072,2.2099,2.2248,2.2311,2.2419,2.2461,2.2459,2.2642,2.2616,2.2576,2.25,2.2656,2.2726,2.2754,2.2394,2.2391,2.239,2.2388,0,0,2.1746,2.1844,2.1877,2.1923,2.2007,2.2089,2.2207,2.2309,2.2368,2.2443,2.2545,2.269,2.2653,2.2714,2.2718,2.2803,2.2967,2.2753,2.2755,2.2793,2.3175,2.3207,2.3239,2.2952,2.2957,2.2961,2.3169,0,2.1941,2.2144,2.215,2.2338,2.2436,2.2407,2.251,2.2575,2.2603,2.2693,2.2725,2.2829,2.2771,2.2808,2.289,2.2929,2.3044,2.2914,2.3051,2.3056,2.3034,2.3275,2.3309,2.3502,2.3196,2.32,2.3204,0,2.2196,2.2275,2.2473,2.2543,2.2584,2.2676,2.2771,2.2855,2.2929,2.2944,2.3011,2.3003,2.3127,2.3043,2.3216,2.3128,2.3184,2.3212,2.322,2.3236,2.3141,2.3301,2.3563,2.3593,2.3246,2.3243,2.324,0,2.2354,2.251,2.2649,2.2689,2.2773,2.2839,2.2878,2.2946,2.3008,2.3091,2.3132,2.323,2.3285,2.3362,2.3382,2.3319,2.3557,2.3474,2.3576,2.3576,2.363,2.3627,2.3909,2.3661,2.3661,2.366,2.3659,0,2.2573,2.2696,2.2721,2.2807,2.2944,2.295,2.3087,2.3122,2.3182,2.3277,2.3258,2.3348,2.3367,2.3462,2.3478,2.3621,2.3645,2.3663,2.3667,2.3667,2.3665,2.3707,2.3695,2.3668,2.3666,2.3665,2.3663,0,2.2775,2.2795,2.2945,2.3012,2.3031,2.313,2.3189,2.3273,2.3297,2.3418,2.3446,2.3487,2.3598,2.3624,2.3756,2.3767,2.3937,2.3926,2.3912,2.3912,2.4014,2.4005,2.4334,2.4379,2.4099,2.4102,2.4104,0,2.2915,2.3008,2.3084,2.3144,2.3185,2.3282,2.3343,2.3353,2.3419,2.3509,2.3584,2.3691,2.3777,2.3956,2.4,2.4101,2.4095,2.4203,2.4111,2.4108,2.41,2.4096,2.4106,2.4222,2.4225,2.4228,2.4229,0,2.3162,2.3168,2.3255,2.3347,2.342,2.3494,2.3564,2.3615,2.3635,2.371,2.3821,2.3888,2.4021,2.413,2.4231,2.4275,2.4258,2.4257,2.4287,2.429,2.4278,2.4289,2.3963,2.4251,2.4249,2.4247,2.4246,2.4245,2.334,2.3421,2.3487,2.3586,2.3639,2.3705,2.3787,2.3821,2.3912,2.4019,2.402,2.4142,2.4214,2.4348,2.4398,2.4496,2.4463,2.4505,2.4517,2.4528,2.4538,2.426,2.4514,2.4514,2.4513,2.4513,2.4512,0,2.3589,2.3629,2.3719,2.3816,2.3895,2.3865,2.3942,2.4011,2.4117,2.4184,2.4268,2.4397,2.4501,2.4552,2.4657,2.4725,2.472,2.4753,2.475,2.4761,2.456,2.4525,2.4755,2.4755,2.4755,2.4755,2.4755,2.4755,2.3727,2.3865,2.3878,2.4043,2.4083,2.4199,2.4246,2.4308,2.4361,2.4504,2.459,2.462,2.4682,2.4791,2.4886,2.4899,2.494,2.4978,2.4987,2.4799,2.4774,2.4751,2.4718,2.4986,2.4986,2.5179,2.5181,2.5183]},{"header":{"parameterUnit":"m.s-1","parameterCategory":1,"la1":30.2991,"la2":30.254,"lo1":-89.0895,"lo2":-89.0444,"dy":0.0017,"dx":0.0017,"nx":28,"ny":28,"refTime":"2024-06-24T03:00:00:Z","depth":0,"parameterNumber":3,"parameterNumberName":"V-component_of_WINDS"},"data":[0,0,0,0,0,0,0,0,0,0,0,0,0,0,0,0,0,0,0,0,0,0,0,0,0,0,0,0,0,0,0,0,0,0,0,0,0,0,0,0,0,0,0,0,0,0,0,0,0,0,0,0,0,0,0,0,0,0,1.8889,1.8889,0,1.8938,1.8938,1.8939,1.8968,1.8968,1.8969,1.8969,1.9016,1.9017,1.9019,0,0,0,0,0,0,0,0,0,0,0,0,0,1.8818,1.8819,1.8889,1.8889,1.889,1.8937,1.8938,1.8939,1.8968,1.8968,1.8969,1.8969,1.9016,1.9017,1.9019,0,0,0,0,0,0,0,0,0,0,0,0,0,1.8856,1.8819,1.8889,1.8911,1.8913,1.8937,1.8938,1.8939,1.8968,1.8968,1.8969,1.8969,1.9016,1.9017,1.9019,1.9025,0,0,1.9024,1.9025,0,0,0,0,0,0,0,0,1.8853,1.8858,1.8907,1.8909,1.8912,1.8947,1.8931,1.8968,1.8968,1.8947,1.8969,1.8969,1.8993,1.8997,1.9005,1.9027,1.9029,1.9024,1.9025,1.9026,1.9026,0,0,0,0,0,0,0,1.8851,1.8856,1.8908,1.8907,1.8911,1.8917,1.8922,1.8938,1.8968,1.8949,1.8951,1.8957,1.8994,1.9003,1.9006,1.903,1.9024,1.9026,1.9027,1.9027,1.9056,1.9056,0,0,0,0,0,0,1.8845,1.8854,1.8907,1.891,1.8883,1.8918,1.8924,1.8936,1.8968,1.8973,1.8957,1.8958,1.9,1.9004,1.9008,1.9016,1.9026,1.9027,1.9028,1.9056,1.9056,1.9056,0,0,0,0,0,0,1.8843,1.885,1.8905,1.8882,1.889,1.8919,1.8931,1.8936,1.8946,1.8974,1.8979,1.896,1.9001,1.9006,1.902,1.9018,1.9028,1.903,1.9056,1.9056,1.9056,1.9031,0,0,0,0,0,0,1.8841,1.8849,1.8852,1.8882,1.8891,1.8917,1.8931,1.8937,1.8949,1.8951,1.8979,1.8984,1.9001,1.9017,1.9022,1.902,1.9031,1.9057,1.9056,1.9056,1.9032,1.903,1.9028,0,0,0,0,0,1.8839,1.8844,1.8853,1.8859,1.8896,1.8917,1.8921,1.8942,1.8948,1.8951,1.8969,1.8983,1.9017,1.9018,1.9024,1.9023,1.9057,1.9056,1.9056,1.9033,1.9031,1.9028,0,0,0,0,0,0,1.8813,1.8848,1.8858,1.8873,1.8892,1.8921,1.8926,1.8939,1.8956,1.8957,1.8982,1.8988,1.8999,1.9012,1.9013,1.9029,1.9038,1.9039,1.902,1.9017,1.9015,1.9011,1.9033,0,0,0,0,0,1.8809,1.8824,1.8853,1.8864,1.8872,1.8897,1.8907,1.8921,1.8941,1.8949,1.8968,1.8986,1.9,1.901,1.9025,1.9034,1.904,1.9036,1.9034,1.9032,1.9032,1.9036,1.9034,1.9054,1.9054,1.9054,0,0,1.8801,1.8822,1.883,1.8859,1.8875,1.8888,1.8904,1.8918,1.8927,1.8951,1.8965,1.8979,1.9001,1.9012,1.9018,1.9023,1.9028,1.9031,1.903,1.9031,1.9035,1.9033,1.9031,1.9053,1.9053,1.9053,0,0,1.8794,1.8811,1.8821,1.8836,1.886,1.8876,1.8878,1.8906,1.8916,1.8931,1.8948,1.8959,1.8985,1.8998,1.9009,1.9003,1.9015,1.9007,1.8996,1.8999,1.8998,1.8996,1.8993,1.8992,1.9007,1.9007,1.9007,0,1.8781,1.8802,1.8824,1.8836,1.8848,1.8869,1.8878,1.8892,1.8919,1.8925,1.8931,1.8962,1.8978,1.8992,1.899,1.8998,1.9,1.9004,1.8996,1.8995,1.8994,1.8991,1.899,1.9006,1.9006,1.9006,1.9006,0,1.8784,1.8798,1.8803,1.8828,1.884,1.885,1.8873,1.8882,1.8894,1.8909,1.8922,1.8942,1.8961,1.8965,1.8978,1.898,1.8982,1.8992,1.9002,1.8991,1.8988,1.8987,1.9004,1.9004,1.9005,1.9005,0,0,1.8764,1.8799,1.88,1.8811,1.8837,1.8848,1.8858,1.8877,1.8883,1.89,1.8908,1.8928,1.8936,1.8948,1.8962,1.8965,1.8957,1.8974,1.8975,1.8969,1.8958,1.895,1.8948,1.8965,1.8965,1.8965,1.8956,0,1.8759,1.8779,1.8798,1.8811,1.8823,1.8842,1.8851,1.8867,1.8881,1.8892,1.8907,1.892,1.8931,1.8937,1.8941,1.8957,1.8955,1.8958,1.8972,1.8972,1.8965,1.8947,1.894,1.893,1.8955,1.8955,1.8955,0,1.8757,1.8773,1.8787,1.8809,1.8815,1.8823,1.8839,1.885,1.8868,1.8877,1.8889,1.8903,1.8913,1.8922,1.8935,1.8937,1.8943,1.8951,1.8951,1.8953,1.8962,1.8947,1.8928,1.8926,1.8954,1.8954,1.8954,0,1.8739,1.8764,1.8774,1.8783,1.881,1.8814,1.8826,1.8844,1.8853,1.8867,1.8872,1.8888,1.8896,1.8906,1.8924,1.8929,1.8934,1.8945,1.8941,1.894,1.8941,1.8941,1.8921,1.8946,1.8946,1.8946,1.8946,0,1.8732,1.8739,1.8766,1.8773,1.8781,1.8801,1.8808,1.8821,1.8836,1.8845,1.8862,1.8869,1.8892,1.8902,1.8915,1.8922,1.8926,1.8933,1.8937,1.8931,1.893,1.8935,1.8936,1.8946,1.8946,1.8946,1.8946,0,1.8713,1.8732,1.8745,1.8769,1.8774,1.8779,1.8799,1.8805,1.8819,1.8829,1.8832,1.8854,1.8865,1.8883,1.8901,1.891,1.8914,1.8921,1.8908,1.891,1.8905,1.8904,1.8887,1.8885,1.8912,1.8912,1.8912,0,1.8708,1.8714,1.8737,1.8744,1.8754,1.8765,1.8774,1.8793,1.8801,1.882,1.8823,1.8836,1.8848,1.8865,1.8882,1.8894,1.89,1.8893,1.8902,1.8896,1.8898,1.8897,1.8897,1.8891,1.8891,1.889,1.889,0,1.8695,1.8703,1.8715,1.8729,1.8738,1.8751,1.8764,1.8768,1.879,1.8798,1.881,1.8818,1.8835,1.8847,1.8861,1.8872,1.8884,1.8887,1.8886,1.8881,1.8873,1.8875,1.8901,1.8887,1.8888,1.8888,1.8888,1.8888,1.8682,1.8687,1.8703,1.8715,1.8727,1.8738,1.8744,1.8758,1.8768,1.8783,1.8793,1.8804,1.8819,1.8839,1.8849,1.8857,1.8862,1.8862,1.8862,1.8861,1.8858,1.8872,1.8859,1.886,1.886,1.886,1.886,0,1.8669,1.8679,1.869,1.8707,1.8715,1.8726,1.874,1.8746,1.8755,1.8768,1.8778,1.8791,1.8802,1.8818,1.883,1.8832,1.8838,1.8835,1.8834,1.8836,1.8853,1.8852,1.883,1.883,1.883,1.883,1.883,1.883,1.8663,1.8671,1.868,1.8694,1.8704,1.8715,1.8722,1.8731,1.8741,1.8754,1.8763,1.8773,1.8787,1.8799,1.8809,1.8813,1.8816,1.8811,1.8817,1.8833,1.8835,1.8838,1.8837,1.8812,1.8812,1.8799,1.8799,1.8799]}]]